EW3591 Weather Reports


Display with metric or nautical units.
time (UTC)temp
F
wind
direction
speed
MPH
gust
MPH
rain 1hr
in
rain 24hr
in
rain mn
in
humidity
%
barometer
mb
20260905230117 75 32 0.0 3.0 0.00 0.00 0.00 64 1014.8
20260905225917 75 37 1.0 3.0 0.00 0.00 0.00 64 1014.8
20260905225716 75 38 1.0 3.0 0.00 0.00 0.00 64 1014.8
20260905225516 75 33 1.0 3.0 0.00 0.00 0.00 64 1014.7
20260905225316 75 24 1.0 3.0 0.00 0.00 0.00 64 1014.7
20260905225115 75 16 0.0 3.0 0.00 0.00 0.00 64 1014.7
20260905224915 75 20 1.0 2.0 0.00 0.00 0.00 64 1014.7
20260905224715 75 16 1.0 3.0 0.00 0.00 0.00 63 1014.7
20260905224514 75 10 1.0 3.0 0.00 0.00 0.00 63 1014.6
20260905224314 76 21 1.0 4.0 0.00 0.00 0.00 63 1014.6
20260905224114 76 32 1.0 4.0 0.00 0.00 0.00 63 1014.6
20260905223913 76 40 0.0 4.0 0.00 0.00 0.00 63 1014.6
20260905223713 76 22 1.0 4.0 0.00 0.00 0.00 63 1014.6
20260905223513 76 10 2.0 4.0 0.00 0.00 0.00 63 1014.7
20260905223312 76 332 1.0 3.0 0.00 0.00 0.00 63 1014.6
20260905223112 76 46 1.0 4.0 0.00 0.00 0.00 63 1014.7
20260905222912 76 89 0.0 5.0 0.00 0.00 0.00 63 1014.7
20260905222712 76 91 0.0 5.0 0.00 0.00 0.00 63 1014.6
20260905222511 76 41 1.0 5.0 0.00 0.00 0.00 62 1014.6
20260905222311 76 48 2.0 5.0 0.00 0.00 0.00 62 1014.7
20260905222111 76 24 1.0 5.0 0.00 0.00 0.00 62 1014.5
20260905221910 77 329 1.0 5.0 0.00 0.00 0.00 62 1014.6
20260905221710 77 38 2.0 5.0 0.00 0.00 0.00 61 1014.6
20260905221510 77 36 1.0 5.0 0.00 0.00 0.00 61 1014.5
20260905221309 77 30 2.0 5.0 0.00 0.00 0.00 60 1014.6
20260905221109 78 39 2.0 5.0 0.00 0.00 0.00 60 1014.6
20260905220909 78 351 1.0 4.0 0.00 0.00 0.00 60 1014.6
20260905220708 79 332 0.0 3.0 0.00 0.00 0.00 60 1014.5
20260905220508 78 327 0.0 3.0 0.00 0.00 0.00 60 1014.6
20260905220308 78 316 1.0 3.0 0.00 0.00 0.00 60 1014.6
20260905220108 78 286 0.0 3.0 0.00 0.00 0.00 60 1014.6
20260905215907 78 292 1.0 3.0 0.00 0.00 0.00 59 1014.6
20260905215707 78 6 0.0 3.0 0.00 0.00 0.00 60 1014.6
20260905215507 78 22 0.0 3.0 0.00 0.00 0.00 60 1014.6
20260905215306 78 24 1.0 3.0 0.00 0.00 0.00 60 1014.6
20260905215106 77 358 1.0 3.0 0.00 0.00 0.00 60 1014.6
20260905214906 77 337 1.0 4.0 0.00 0.00 0.00 61 1014.6
20260905214705 77 24 1.0 4.0 0.00 0.00 0.00 61 1014.6
20260905214505 77 20 2.0 4.0 0.00 0.00 0.00 60 1014.6
20260905214305 77 23 1.0 6.0 0.00 0.00 0.00 60 1014.6
20260905214104 77 17 1.0 6.0 0.00 0.00 0.00 60 1014.7
20260905213904 77 37 1.0 7.0 0.00 0.00 0.00 61 1014.7
20260905213704 77 66 1.0 7.0 0.00 0.00 0.00 61 1014.6
20260905213503 77 39 2.0 7.0 0.00 0.00 0.00 61 1014.7
20260905213303 77 47 3.0 7.0 0.00 0.00 0.00 61 1014.6
20260905213103 77 42 3.0 7.0 0.00 0.00 0.00 61 1014.5
20260905212903 77 28 2.0 7.0 0.00 0.00 0.00 60 1014.6
20260905212702 78 22 2.0 5.0 0.00 0.00 0.00 60 1014.6
20260905212502 78 48 2.0 5.0 0.00 0.00 0.00 60 1014.6
20260905212305 78 28 2.0 5.0 0.00 0.00 0.00 60 1014.6
20260905212101 78 29 1.0 7.0 0.00 0.00 0.00 60 1014.6
20260905211901 78 33 2.0 7.0 0.00 0.00 0.00 60 1014.6
20260905211701 78 33 2.0 7.0 0.00 0.00 0.00 60 1014.6
20260905211500 78 34 2.0 7.0 0.00 0.00 0.00 60 1014.5
20260905211300 79 22 2.0 7.0 0.00 0.00 0.00 59 1014.4
20260905211100 79 4 1.0 7.0 0.00 0.00 0.00 58 1014.4
20260905210859 79 29 2.0 7.0 0.00 0.00 0.00 59 1014.4
20260905210659 79 49 3.0 7.0 0.00 0.00 0.00 59 1014.5
20260905210459 79 46 2.0 7.0 0.00 0.00 0.00 59 1014.5
20260905210258 79 16 1.0 6.0 0.00 0.00 0.00 60 1014.4
20260905210058 79 4 1.0 6.0 0.00 0.00 0.00 61 1014.4
20260905205858 78 16 2.0 6.0 0.00 0.00 0.00 60 1014.4
20260905205658 79 30 2.0 6.0 0.00 0.00 0.00 59 1014.3
20260905205457 79 27 2.0 6.0 0.00 0.00 0.00 59 1014.3
20260905205257 80 15 2.0 6.0 0.00 0.00 0.00 57 1014.3
20260905205057 80 37 2.0 8.0 0.00 0.00 0.00 57 1014.3
20260905204856 80 45 3.0 8.0 0.00 0.00 0.00 56 1014.3
20260905204656 81 354 2.0 8.0 0.00 0.00 0.00 57 1014.3
20260905204456 80 11 3.0 8.0 0.00 0.00 0.00 58 1014.3
20260905204255 80 43 4.0 8.0 0.00 0.00 0.00 57 1014.3
20260905204055 81 17 2.0 8.0 0.00 0.00 0.00 57 1014.3
20260905203855 81 27 0.0 5.0 0.00 0.00 0.00 57 1014.3
20260905203654 80 27 0.0 6.0 0.00 0.00 0.00 58 1014.3
20260905203454 80 33 1.0 6.0 0.00 0.00 0.00 58 1014.3
20260905203254 80 27 2.0 6.0 0.00 0.00 0.00 57 1014.3
20260905203054 81 15 2.0 6.0 0.00 0.00 0.00 58 1014.3
20260905202853 81 39 2.0 5.0 0.00 0.00 0.00 57 1014.3
20260905202653 81 26 1.0 4.0 0.00 0.00 0.00 57 1014.2
20260905202252 80 56 0.0 5.0 0.00 0.00 0.00 58 1014.2
20260905202052 80 76 1.0 5.0 0.00 0.00 0.00 58 1014.2
20260905201852 80 39 1.0 5.0 0.00 0.00 0.00 57 1014.3
20260905201651 79 352 1.0 5.0 0.00 0.00 0.00 58 1014.3
20260905201451 79 39 2.0 5.0 0.00 0.00 0.00 58 1014.3
20260905201251 79 45 2.0 5.0 0.00 0.00 0.00 59 1014.4
20260905201050 79 36 2.0 4.0 0.00 0.00 0.00 60 1014.3
20260905200850 78 21 1.0 3.0 0.00 0.00 0.00 59 1014.4
20260905200650 78 272 1.0 4.0 0.00 0.00 0.00 61 1014.4
20260905200449 78 314 1.0 5.0 0.00 0.00 0.00 60 1014.3
20260905200249 78 14 0.0 5.0 0.00 0.00 0.00 61 1014.4
20260905200049 78 30 1.0 5.0 0.00 0.00 0.00 60 1014.4
20260905195849 78 48 2.0 5.0 0.00 0.00 0.00 60 1014.4
20260905195648 79 35 1.0 5.0 0.00 0.00 0.00 59 1014.3
20260905195448 79 40 1.0 6.0 0.00 0.00 0.00 59 1014.4
20260905195248 79 58 0.0 7.0 0.00 0.00 0.00 59 1014.3
20260905195047 79 59 0.0 8.0 0.00 0.00 0.00 59 1014.3
20260905194847 79 60 1.0 8.0 0.00 0.00 0.00 59 1014.3
20260905194647 79 60 3.0 8.0 0.00 0.00 0.00 59 1014.4
20260905194446 79 67 2.0 8.0 0.00 0.00 0.00 58 1014.5
20260905194246 79 56 2.0 8.0 0.00 0.00 0.00 60 1014.4
20260905194046 79 37 3.0 8.0 0.00 0.00 0.00 59 1014.4
20260905193845 78 24 0.0 5.0 0.00 0.00 0.00 61 1014.4
20260905193645 78 70 0.0 3.0 0.00 0.00 0.00 61 1014.4
20260905193445 77 58 1.0 5.0 0.00 0.00 0.00 61 1014.4
20260905193244 77 51 1.0 5.0 0.00 0.00 0.00 61 1014.4
20260905193044 77 54 1.0 5.0 0.00 0.00 0.00 60 1014.4
20260905192844 77 68 1.0 5.0 0.00 0.00 0.00 61 1014.5
20260905192644 78 66 2.0 5.0 0.00 0.00 0.00 60 1014.5
20260905192443 78 65 1.0 5.0 0.00 0.00 0.00 60 1014.6
20260905192243 78 46 2.0 5.0 0.00 0.00 0.00 60 1014.6
20260905192043 78 67 1.0 7.0 0.00 0.00 0.00 59 1014.6
20260905191842 79 34 2.0 7.0 0.00 0.00 0.00 59 1014.6
20260905191642 79 33 3.0 7.0 0.00 0.00 0.00 58 1014.6
20260905191442 80 34 4.0 8.0 0.00 0.00 0.00 58 1014.6
20260905191241 80 34 3.0 8.0 0.00 0.00 0.00 57 1014.6
20260905191041 81 330 2.0 8.0 0.00 0.00 0.00 57 1014.6
20260905190841 81 355 3.0 8.0 0.00 0.00 0.00 56 1014.6
20260905190641 81 25 3.0 8.0 0.00 0.00 0.00 56 1014.7
20260905190440 82 9 2.0 8.0 0.00 0.00 0.00 56 1014.7
20260905190240 82 342 1.0 7.0 0.00 0.00 0.00 56 1014.7
20260905190039 82 8 1.0 4.0 0.00 0.00 0.00 57 1014.7
20260905185839 82 86 1.0 4.0 0.00 0.00 0.00 57 1014.8
20260905185639 81 71 0.0 4.0 0.00 0.00 0.00 57 1014.8
20260905185439 81 31 1.0 4.0 0.00 0.00 0.00 60 1014.7
20260905185238 80 94 0.0 5.0 0.00 0.00 0.00 59 1014.8
20260905185038 80 128 1.0 6.0 0.00 0.00 0.00 60 1014.8
20260905184838 79 20 1.0 6.0 0.00 0.00 0.00 59 1014.8
20260905184637 79 25 2.0 7.0 0.00 0.00 0.00 59 1014.8
20260905184437 80 18 2.0 7.0 0.00 0.00 0.00 58 1014.8
20260905184237 80 42 2.0 7.0 0.00 0.00 0.00 58 1014.8
20260905184036 80 42 3.0 7.0 0.00 0.00 0.00 58 1014.9
20260905183836 81 47 3.0 7.0 0.00 0.00 0.00 57 1014.9
20260905183636 82 64 2.0 5.0 0.00 0.00 0.00 56 1014.9
20260905183435 82 25 1.0 4.0 0.00 0.00 0.00 57 1014.9
20260905183235 81 17 1.0 4.0 0.00 0.00 0.00 56 1014.8
20260905183035 81 349 1.0 4.0 0.00 0.00 0.00 57 1014.8
20260905182834 81 44 0.0 4.0 0.00 0.00 0.00 60 1014.8
20260905182634 81 46 1.0 4.0 0.00 0.00 0.00 58 1014.9
20260905182434 80 22 1.0 7.0 0.00 0.00 0.00 58 1015.0
20260905182234 80 335 1.0 8.0 0.00 0.00 0.00 59 1014.9
20260905182033 80 13 1.0 8.0 0.00 0.00 0.00 59 1015.0
20260905181833 80 52 3.0 8.0 0.00 0.00 0.00 59 1015.0
20260905181633 80 43 3.0 8.0 0.00 0.00 0.00 58 1015.0
20260905181432 81 17 1.0 10.0 0.00 0.00 0.00 58 1015.0
20260905181232 81 6 1.0 10.0 0.00 0.00 0.00 58 1015.0
20260905181032 80 54 1.0 10.0 0.00 0.00 0.00 58 1015.0
20260905180831 80 38 3.0 10.0 0.00 0.00 0.00 59 1015.0
20260905180631 80 45 3.0 10.0 0.00 0.00 0.00 58 1014.9
20260905180431 81 73 2.0 10.0 0.00 0.00 0.00 58 1014.9
20260905180230 81 8 2.0 5.0 0.00 0.00 0.00 58 1014.9
20260905180030 80 22 2.0 7.0 0.00 0.00 0.00 59 1014.9
20260905175830 80 39 2.0 7.0 0.00 0.00 0.00 58 1014.9
20260905175630 80 205 1.0 7.0 0.00 0.00 0.00 59 1014.9
20260905175429 80 16 2.0 7.0 0.00 0.00 0.00 60 1014.9
20260905175229 80 31 3.0 7.0 0.00 0.00 0.00 60 1014.9
20260905175029 80 24 3.0 6.0 0.00 0.00 0.00 60 1014.9
20260905174828 80 19 2.0 9.0 0.00 0.00 0.00 60 1014.8
20260905174628 80 15 1.0 10.0 0.00 0.00 0.00 60 1014.8
20260905174428 79 1 2.0 10.0 0.00 0.00 0.00 60 1014.7
20260905174227 79 21 2.0 10.0 0.00 0.00 0.00 60 1014.8
20260905174027 79 47 3.0 10.0 0.00 0.00 0.00 60 1014.7
20260905173827 79 51 2.0 10.0 0.00 0.00 0.00 59 1014.7
20260905173626 79 33 3.0 8.0 0.00 0.00 0.00 59 1014.7
20260905173426 79 45 3.0 8.0 0.00 0.00 0.00 58 1014.6
20260905173226 79 44 3.0 8.0 0.00 0.00 0.00 57 1014.7
20260905173025 79 40 3.0 8.0 0.00 0.00 0.00 59 1014.7
20260905172825 79 35 2.0 7.0 0.00 0.00 0.00 59 1014.7
20260905172625 79 56 2.0 7.0 0.00 0.00 0.00 59 1014.7
20260905172425 79 52 2.0 7.0 0.00 0.00 0.00 59 1014.8
20260905172224 79 35 3.0 7.0 0.00 0.00 0.00 59 1014.8
20260905172024 80 48 1.0 7.0 0.00 0.00 0.00 61 1014.8
20260905171824 79 29 2.0 6.0 0.00 0.00 0.00 60 1014.8
20260905171623 79 22 2.0 6.0 0.00 0.00 0.00 62 1015.0
20260905171423 79 25 1.0 7.0 0.00 0.00 0.00 62 1014.9
20260905171223 79 33 2.0 7.0 0.00 0.00 0.00 62 1014.9
20260905171022 78 20 1.0 7.0 0.00 0.00 0.00 62 1014.9
20260905170822 78 53 2.0 7.0 0.00 0.00 0.00 59 1014.9
20260905170622 78 57 2.0 7.0 0.00 0.00 0.00 61 1015.0
20260905170421 78 23 2.0 6.0 0.00 0.00 0.00 62 1015.0
20260905170221 78 28 2.0 6.0 0.00 0.00 0.00 63 1015.0
20260905170021 78 55 2.0 6.0 0.00 0.00 0.00 63 1014.9
20260905165821 78 37 3.0 7.0 0.00 0.00 0.00 62 1014.9
20260905165620 78 30 2.0 7.0 0.00 0.00 0.00 62 1015.0
20260905165420 78 28 2.0 7.0 0.00 0.00 0.00 62 1014.9
20260905165220 78 44 3.0 7.0 0.00 0.00 0.00 61 1015.0
20260905165019 78 41 2.0 7.0 0.00 0.00 0.00 63 1014.9
20260905164819 78 1 1.0 6.0 0.00 0.00 0.00 66 1014.9
20260905164619 77 23 2.0 7.0 0.00 0.00 0.00 65 1014.9
20260905164418 77 25 3.0 8.0 0.00 0.00 0.00 64 1014.9
20260905164218 77 1 2.0 8.0 0.00 0.00 0.00 66 1015.0
20260905164018 77 22 2.0 8.0 0.00 0.00 0.00 65 1015.0
20260905163817 77 25 3.0 8.0 0.00 0.00 0.00 65 1015.0
20260905163617 77 41 3.0 6.0 0.00 0.00 0.00 66 1015.0
20260905163417 77 50 3.0 6.0 0.00 0.00 0.00 66 1015.0
20260905163216 77 53 2.0 6.0 0.00 0.00 0.00 66 1015.0
20260905163016 77 31 1.0 6.0 0.00 0.00 0.00 68 1015.0
20260905162816 77 24 2.0 6.0 0.00 0.00 0.00 67 1015.1
20260905162616 77 45 2.0 6.0 0.00 0.00 0.00 66 1015.2
20260905162415 78 42 1.0 5.0 0.00 0.00 0.00 66 1015.2
20260905162215 77 50 1.0 6.0 0.00 0.00 0.00 67 1015.1
20260905162015 78 15 1.0 6.0 0.00 0.00 0.00 68 1015.2
20260905161814 77 357 1.0 6.0 0.00 0.00 0.00 69 1015.2
20260905161614 77 41 3.0 6.0 0.00 0.00 0.00 67 1015.2
20260905161414 77 50 3.0 6.0 0.00 0.00 0.00 67 1015.2
20260905161213 77 27 2.0 5.0 0.00 0.00 0.00 67 1015.1
20260905161013 77 17 1.0 5.0 0.00 0.00 0.00 68 1015.1
20260905160813 78 36 2.0 5.0 0.00 0.00 0.00 67 1015.2
20260905160612 78 360 2.0 5.0 0.00 0.00 0.00 68 1015.2
20260905160412 77 7 1.0 6.0 0.00 0.00 0.00 68 1015.1
20260905160212 77 353 0.0 6.0 0.00 0.00 0.00 69 1015.1
20260905160011 77 13 1.0 6.0 0.00 0.00 0.00 69 1015.1
20260905155811 76 43 1.0 6.0 0.00 0.00 0.00 68 1015.1
20260905155611 76 44 1.0 6.0 0.00 0.00 0.00 70 1015.1
20260905155411 76 20 0.0 6.0 0.00 0.00 0.00 70 1015.0
20260905155210 76 39 2.0 6.0 0.00 0.00 0.00 69 1015.0
20260905155010 76 23 2.0 6.0 0.00 0.00 0.00 69 1015.1
20260905154810 76 11 1.0 4.0 0.00 0.00 0.00 71 1015.0
20260905154609 75 358 1.0 6.0 0.00 0.00 0.00 71 1015.0
20260905154409 75 7 1.0 7.0 0.00 0.00 0.00 71 1015.0
20260905154209 75 45 1.0 7.0 0.00 0.00 0.00 71 1015.1
20260905154008 74 25 3.0 7.0 0.00 0.00 0.00 71 1015.1
20260905153808 75 28 3.0 7.0 0.00 0.00 0.00 71 1015.1
20260905153608 75 4 2.0 6.0 0.00 0.00 0.00 72 1015.1
20260905153407 75 27 2.0 9.0 0.00 0.00 0.00 71 1015.1
20260905153207 75 37 2.0 9.0 0.00 0.00 0.00 71 1015.0
20260905153007 75 45 2.0 9.0 0.00 0.00 0.00 71 1015.2
20260905152806 75 63 2.0 9.0 0.00 0.00 0.00 71 1015.2
20260905152606 75 53 2.0 9.0 0.00 0.00 0.00 70 1015.3
20260905152406 75 24 1.0 5.0 0.00 0.00 0.00 72 1015.2
20260905152206 75 23 2.0 5.0 0.00 0.00 0.00 72 1015.3
20260905152005 75 20 2.0 5.0 0.00 0.00 0.00 71 1015.3
20260905151805 75 63 1.0 4.0 0.00 0.00 0.00 71 1015.2
20260905151605 74 65 0.0 4.0 0.00 0.00 0.00 72 1015.2
20260905151404 74 47 1.0 4.0 0.00 0.00 0.00 71 1015.2
20260905151204 74 351 0.0 4.0 0.00 0.00 0.00 71 1015.2
20260905151004 74 351 0.0 4.0 0.00 0.00 0.00 72 1015.1
20260905150803 74 352 1.0 7.0 0.00 0.00 0.00 72 1015.2
20260905150603 74 7 1.0 7.0 0.00 0.00 0.00 73 1015.2
20260905150403 73 42 1.0 7.0 0.00 0.00 0.00 73 1015.3
20260905150202 73 32 2.0 7.0 0.00 0.00 0.00 73 1015.2
20260905150002 73 23 2.0 7.0 0.00 0.00 0.00 73 1015.3
20260905145802 73 31 1.0 5.0 0.00 0.00 0.00 74 1015.4
20260905145601 73 31 2.0 5.0 0.00 0.00 0.00 73 1015.3
20260905145401 73 18 2.0 5.0 0.00 0.00 0.00 73 1015.3
20260905145201 73 22 1.0 5.0 0.00 0.00 0.00 74 1015.3
20260905145001 73 38 2.0 5.0 0.00 0.00 0.00 74 1015.3
20260905144800 72 43 2.0 6.0 0.00 0.00 0.00 74 1015.3
20260905144600 72 38 2.0 6.0 0.00 0.00 0.00 74 1015.3
20260905144400 72 30 1.0 6.0 0.00 0.00 0.00 75 1015.3
20260905144159 72 8 2.0 6.0 0.00 0.00 0.00 76 1015.3
20260905143959 72 32 2.0 6.0 0.00 0.00 0.00 75 1015.2
20260905143759 72 53 2.0 6.0 0.00 0.00 0.00 75 1015.3
20260905143558 72 58 2.0 6.0 0.00 0.00 0.00 75 1015.2
20260905143358 72 54 2.0 6.0 0.00 0.00 0.00 75 1015.3
20260905143158 71 48 2.0 5.0 0.00 0.00 0.00 76 1015.2
20260905142957 71 50 2.0 6.0 0.00 0.00 0.00 76 1015.2
20260905142757 71 54 1.0 6.0 0.00 0.00 0.00 76 1015.2
20260905142557 71 35 0.0 6.0 0.00 0.00 0.00 76 1015.1
20260905142356 71 36 1.0 6.0 0.00 0.00 0.00 75 1015.1
20260905142156 71 36 2.0 6.0 0.00 0.00 0.00 74 1015.1
20260905141956 71 60 1.0 6.0 0.00 0.00 0.00 76 1015.1
20260905141756 71 57 1.0 6.0 0.00 0.00 0.00 76 1015.0
20260905141555 71 21 2.0 6.0 0.00 0.00 0.00 77 1015.0
20260905141355 70 3 2.0 6.0 0.00 0.00 0.00 76 1015.1
20260905141155 70 24 2.0 5.0 0.00 0.00 0.00 77 1015.0
20260905140954 70 36 2.0 5.0 0.00 0.00 0.00 77 1015.0
20260905140754 70 41 2.0 5.0 0.00 0.00 0.00 77 1014.9
20260905140554 70 30 2.0 5.0 0.00 0.00 0.00 76 1015.0
20260905140353 70 33 2.0 7.0 0.00 0.00 0.00 77 1015.0
20260905140153 70 22 2.0 7.0 0.00 0.00 0.00 77 1015.0
20260905135953 70 22 2.0 7.0 0.00 0.00 0.00 78 1015.0
20260905135752 70 20 2.0 7.0 0.00 0.00 0.00 78 1015.0
20260905135552 70 21 3.0 7.0 0.00 0.00 0.00 78 1015.1
20260905135352 70 38 2.0 7.0 0.00 0.00 0.00 78 1015.1
20260905135151 70 33 2.0 5.0 0.00 0.00 0.00 79 1015.1
20260905134951 70 32 1.0 5.0 0.00 0.00 0.00 80 1015.1
20260905134751 70 49 1.0 5.0 0.00 0.00 0.00 80 1015.1
20260905134550 70 47 2.0 5.0 0.00 0.00 0.00 79 1015.2
20260905134350 70 57 1.0 5.0 0.00 0.00 0.00 80 1015.2
20260905134150 69 44 1.0 5.0 0.00 0.00 0.00 81 1015.2
20260905133950 69 22 2.0 5.0 0.00 0.00 0.00 80 1015.2
20260905133749 69 31 2.0 5.0 0.00 0.00 0.00 80 1015.2
20260905133549 69 50 2.0 5.0 0.00 0.00 0.00 81 1015.2
20260905133349 69 20 2.0 5.0 0.00 0.00 0.00 81 1015.2
20260905133149 69 33 2.0 5.0 0.00 0.00 0.00 81 1015.3
20260905132948 69 67 2.0 5.0 0.00 0.00 0.00 80 1015.3
20260905132748 69 53 2.0 5.0 0.00 0.00 0.00 80 1015.3
20260905132547 69 25 2.0 5.0 0.00 0.00 0.00 81 1015.3
20260905132347 69 24 1.0 5.0 0.00 0.00 0.00 81 1015.3
20260905132147 69 44 2.0 5.0 0.00 0.00 0.00 81 1015.3
20260905131946 69 36 2.0 5.0 0.00 0.00 0.00 81 1015.4
20260905131746 69 34 1.0 5.0 0.00 0.00 0.00 82 1015.4
20260905131546 69 86 1.0 5.0 0.00 0.00 0.00 82 1015.2
20260905131346 69 70 1.0 5.0 0.00 0.00 0.00 82 1015.3
20260905131145 69 19 2.0 5.0 0.00 0.00 0.00 82 1015.3
20260905130945 69 22 1.0 5.0 0.00 0.00 0.00 82 1015.3
20260905130745 69 31 1.0 5.0 0.00 0.00 0.00 82 1015.4
20260905130544 69 22 1.0 4.0 0.00 0.00 0.00 82 1015.4
20260905130344 69 42 1.0 4.0 0.00 0.00 0.00 82 1015.4
20260905130144 69 56 1.0 5.0 0.00 0.00 0.00 82 1015.4
20260905125943 69 20 1.0 5.0 0.00 0.00 0.00 83 1015.5
20260905125743 69 26 1.0 5.0 0.00 0.00 0.00 83 1015.5
20260905125543 68 23 1.0 5.0 0.00 0.00 0.00 83 1015.4
20260905125342 68 21 2.0 5.0 0.00 0.00 0.00 84 1015.4
20260905125142 68 25 2.0 5.0 0.00 0.00 0.00 83 1015.5
20260905124942 68 31 1.0 4.0 0.00 0.00 0.00 84 1015.5
20260905124741 68 32 1.0 3.0 0.00 0.00 0.00 84 1015.5
20260905124541 68 10 1.0 3.0 0.00 0.00 0.00 84 1015.4
20260905124341 68 33 1.0 4.0 0.00 0.00 0.00 84 1015.4
20260905124141 68 62 1.0 4.0 0.00 0.00 0.00 84 1015.5
20260905123940 68 55 1.0 4.0 0.00 0.00 0.00 85 1015.5
20260905123740 67 58 1.0 4.0 0.00 0.00 0.00 85 1015.4
20260905123540 67 24 2.0 4.0 0.00 0.00 0.00 85 1015.5
20260905123339 67 31 1.0 4.0 0.00 0.00 0.00 86 1015.5
20260905123139 67 60 0.0 5.0 0.00 0.00 0.00 86 1015.5
20260905122939 66 41 1.0 5.0 0.00 0.00 0.00 87 1015.5
20260905122738 66 50 1.0 5.0 0.00 0.00 0.00 87 1015.5
20260905122538 66 49 2.0 5.0 0.00 0.00 0.00 88 1015.5
20260905122338 66 57 1.0 4.0 0.00 0.00 0.00 88 1015.6
20260905122137 66 56 1.0 4.0 0.00 0.00 0.00 88 1015.5
20260905121937 65 73 1.0 4.0 0.00 0.00 0.00 88 1015.5
20260905121737 65 79 1.0 3.0 0.00 0.00 0.00 89 1015.5
20260905121537 65 54 1.0 4.0 0.00 0.00 0.00 89 1015.5
20260905121336 65 31 0.0 4.0 0.00 0.00 0.00 90 1015.5
20260905121136 65 11 0.0 4.0 0.00 0.00 0.00 90 1015.6
20260905120936 65 15 1.0 4.0 0.00 0.00 0.00 90 1015.6
20260905120735 64 69 1.0 4.0 0.00 0.00 0.00 90 1015.6
20260905120535 64 46 1.0 3.0 0.00 0.00 0.00 90 1015.5
20260905120335 64 52 1.0 3.0 0.00 0.00 0.00 90 1015.6
20260905120134 64 61 0.0 2.0 0.00 0.00 0.00 91 1015.5
20260905115934 64 25 0.0 2.0 0.00 0.00 0.00 91 1015.5
20260905115734 64 20 0.0 2.0 0.00 0.00 0.00 92 1015.5
20260905115533 64 17 0.0 2.0 0.00 0.00 0.00 92 1015.5
20260905115333 63 17 0.0 2.0 0.00 0.00 0.00 92 1015.5
20260905115133 63 17 0.0 2.0 0.00 0.00 0.00 93 1015.5
20260905114932 63 17 0.0 1.0 0.00 0.00 0.00 93 1015.4
20260905114732 62 17 0.0 1.0 0.00 0.00 0.00 94 1015.4
20260905114532 62 17 0.0 1.0 0.00 0.00 0.00 94 1015.4
20260905114332 62 17 0.0 1.0 0.00 0.00 0.00 95 1015.4
20260905114131 62 17 0.0 1.0 0.00 0.00 0.00 95 1015.4
20260905113931 62 0 0.0 0.0 0.00 0.00 0.00 95 1015.3
20260905113731 61 0 0.0 0.0 0.00 0.00 0.00 95 1015.3
20260905113530 61 0 0.0 0.0 0.00 0.00 0.00 95 1015.3
20260905113330 61 0 0.0 0.0 0.00 0.00 0.00 95 1015.2
20260905113130 61 0 0.0 0.0 0.00 0.00 0.00 95 1015.3
20260905112929 61 0 0.0 0.0 0.00 0.00 0.00 95 1015.3
20260905112729 61 0 0.0 0.0 0.00 0.00 0.00 95 1015.3
20260905112529 61 0 0.0 0.0 0.00 0.00 0.00 94 1015.2
20260905112328 61 0 0.0 0.0 0.00 0.00 0.00 94 1015.1
20260905112128 61 0 0.0 0.0 0.00 0.00 0.00 94 1015.1
20260905111928 61 0 0.0 0.0 0.00 0.00 0.00 94 1015.0
20260905111727 61 0 0.0 0.0 0.00 0.00 0.00 94 1015.0
20260905111527 61 0 0.0 0.0 0.00 0.00 0.00 94 1014.9
20260905111327 61 0 0.0 0.0 0.00 0.00 0.00 94 1014.9
20260905111126 61 0 0.0 0.0 0.00 0.00 0.00 94 1014.9
20260905110926 61 0 0.0 0.0 0.00 0.00 0.00 94 1014.8
20260905110726 61 0 0.0 0.0 0.00 0.00 0.00 94 1014.8
20260905110526 61 0 0.0 0.0 0.00 0.00 0.00 94 1014.8
20260905110325 61 0 0.0 0.0 0.00 0.00 0.00 93 1014.8
20260905110125 61 0 0.0 0.0 0.00 0.00 0.00 93 1014.8
20260905105925 61 0 0.0 0.0 0.00 0.00 0.00 93 1014.7
20260905105724 62 0 0.0 0.0 0.00 0.00 0.00 93 1014.7
20260905105524 62 0 0.0 0.0 0.00 0.00 0.00 93 1014.6
20260905105324 62 0 0.0 0.0 0.00 0.00 0.00 93 1014.6
20260905105123 62 0 0.0 1.0 0.00 0.00 0.00 93 1014.5
20260905104923 62 0 0.0 1.0 0.00 0.00 0.00 93 1014.5
20260905104723 62 0 0.0 1.0 0.00 0.00 0.00 93 1014.5
20260905104523 62 17 0.0 1.0 0.00 0.00 0.00 93 1014.5
20260905104322 62 17 0.0 1.0 0.00 0.00 0.00 93 1014.4
20260905104122 62 17 0.0 1.0 0.00 0.00 0.00 93 1014.4
20260905103922 62 17 0.0 1.0 0.00 0.00 0.00 93 1014.4
20260905103721 62 17 0.0 1.0 0.00 0.00 0.00 93 1014.5
20260905103521 62 0 0.0 0.0 0.00 0.00 0.00 93 1014.6
20260905103321 62 0 0.0 1.0 0.00 0.00 0.00 92 1014.6
20260905103120 62 0 0.0 1.0 0.00 0.00 0.00 92 1014.6
20260905102920 62 0 0.0 1.0 0.00 0.00 0.00 92 1014.6
20260905102720 62 17 0.0 1.0 0.00 0.00 0.00 92 1014.5
20260905102519 62 0 0.0 0.0 0.00 0.00 0.00 92 1014.6
20260905102319 62 0 0.0 0.0 0.00 0.00 0.00 92 1014.6
20260905102119 62 0 0.0 1.0 0.00 0.00 0.00 92 1014.6
20260905101918 62 0 0.0 1.0 0.00 0.00 0.00 92 1014.6
20260905101718 62 0 0.0 1.0 0.00 0.00 0.00 92 1014.6
20260905101518 63 17 0.0 1.0 0.00 0.00 0.00 92 1014.5
20260905101318 63 17 0.0 1.0 0.00 0.00 0.00 91 1014.5
20260905101117 63 17 0.0 1.0 0.00 0.00 0.00 91 1014.5
20260905100917 63 0 0.0 1.0 0.00 0.00 0.00 91 1014.5
20260905100717 63 0 0.0 1.0 0.00 0.00 0.00 91 1014.5
20260905100516 63 17 0.0 1.0 0.00 0.00 0.00 91 1014.5
20260905100316 63 17 0.0 1.0 0.00 0.00 0.00 91 1014.5
20260905100116 63 17 0.0 1.0 0.00 0.00 0.00 91 1014.5
20260905095915 63 0 0.0 1.0 0.00 0.00 0.00 91 1014.5
20260905095715 63 0 0.0 0.0 0.00 0.00 0.00 91 1014.6
20260905095515 64 0 0.0 0.0 0.00 0.00 0.00 90 1014.6
20260905095314 64 0 0.0 0.0 0.00 0.00 0.00 90 1014.6
20260905095114 64 0 0.0 0.0 0.00 0.00 0.00 90 1014.7
20260905094914 64 0 0.0 0.0 0.00 0.00 0.00 90 1014.7
20260905094713 64 0 0.0 0.0 0.00 0.00 0.00 89 1014.7
20260905094513 64 0 0.0 0.0 0.00 0.00 0.00 89 1014.7
20260905094313 64 0 0.0 1.0 0.00 0.00 0.00 89 1014.7
20260905094113 64 0 0.0 1.0 0.00 0.00 0.00 89 1014.7
20260905093912 64 0 0.0 1.0 0.00 0.00 0.00 89 1014.6
20260905093712 64 16 0.0 1.0 0.00 0.00 0.00 89 1014.7
20260905093512 65 16 0.0 1.0 0.00 0.00 0.00 89 1014.6
20260905093311 65 15 0.0 1.0 0.00 0.00 0.00 89 1014.6
20260905093111 65 15 0.0 1.0 0.00 0.00 0.00 89 1014.6
20260905092911 65 15 0.0 1.0 0.00 0.00 0.00 88 1014.7
20260905092710 65 15 0.0 1.0 0.00 0.00 0.00 88 1014.7
20260905092510 65 15 0.0 1.0 0.00 0.00 0.00 88 1014.7
20260905092310 65 15 0.0 2.0 0.00 0.00 0.00 88 1014.7
20260905092109 65 15 0.0 2.0 0.00 0.00 0.00 88 1014.7
20260905091909 65 15 0.0 2.0 0.00 0.00 0.00 88 1014.7
20260905091709 65 15 0.0 2.0 0.00 0.00 0.00 88 1014.6
20260905091509 65 24 0.0 2.0 0.00 0.00 0.00 88 1014.5
20260905091308 65 24 0.0 3.0 0.00 0.00 0.00 89 1014.6
20260905091108 65 39 1.0 3.0 0.00 0.00 0.00 89 1014.6
20260905090908 65 33 0.0 3.0 0.00 0.00 0.00 89 1014.6
20260905090707 65 43 1.0 4.0 0.00 0.00 0.00 89 1014.5
20260905090507 65 37 1.0 4.0 0.00 0.00 0.00 89 1014.6
20260905090307 65 19 0.0 4.0 0.00 0.00 0.00 89 1014.5
20260905090106 65 8 1.0 4.0 0.00 0.00 0.00 89 1014.5
20260905085906 64 358 0.0 4.0 0.00 0.00 0.00 89 1014.4
20260905085706 64 358 0.0 3.0 0.00 0.00 0.00 90 1014.4
20260905085505 64 58 0.0 3.0 0.00 0.00 0.00 89 1014.4
20260905085306 64 60 0.0 1.0 0.00 0.00 0.00 90 1014.4
20260905085105 64 53 0.0 1.0 0.00 0.00 0.00 90 1014.3
20260905084904 64 45 0.0 2.0 0.00 0.00 0.00 90 1014.3
20260905084704 64 46 0.0 2.0 0.00 0.00 0.00 90 1014.3
20260905084504 64 46 0.0 2.0 0.00 0.00 0.00 89 1014.4
20260905084304 64 9 0.0 2.0 0.00 0.00 0.00 89 1014.3
20260905084103 64 352 0.0 2.0 0.00 0.00 0.00 89 1014.3
20260905083903 64 21 0.0 3.0 0.00 0.00 0.00 89 1014.3
20260905083703 64 41 0.0 3.0 0.00 0.00 0.00 89 1014.3
20260905083502 64 40 0.0 3.0 0.00 0.00 0.00 89 1014.3
20260905083302 64 40 0.0 3.0 0.00 0.00 0.00 89 1014.3
20260905083102 64 52 0.0 3.0 0.00 0.00 0.00 89 1014.2
20260905082901 64 17 1.0 3.0 0.00 0.00 0.00 89 1014.2
20260905082701 64 10 0.0 4.0 0.00 0.00 0.00 89 1014.2
20260905082501 64 53 0.0 4.0 0.00 0.00 0.00 89 1014.1
20260905082300 64 56 0.0 4.0 0.00 0.00 0.00 89 1014.1
20260905082100 64 39 0.0 4.0 0.00 0.00 0.00 89 1014.1
20260905081900 64 39 1.0 4.0 0.00 0.00 0.00 89 1014.1
20260905081659 64 47 1.0 4.0 0.00 0.00 0.00 89 1014.1
20260905081459 64 61 1.0 4.0 0.00 0.00 0.00 89 1014.0
20260905081259 64 46 1.0 4.0 0.00 0.00 0.00 89 1014.1
20260905081059 64 51 1.0 4.0 0.00 0.00 0.00 89 1014.1
20260905080859 64 48 1.0 4.0 0.00 0.00 0.00 89 1014.2
20260905080658 64 49 0.0 4.0 0.00 0.00 0.00 89 1014.0
20260905080458 64 43 1.0 4.0 0.00 0.00 0.00 89 1014.1
20260905080257 64 28 0.0 4.0 0.00 0.00 0.00 88 1014.1
20260905080057 64 30 0.0 4.0 0.00 0.00 0.00 88 1014.1
20260905075857 64 28 0.0 4.0 0.00 0.00 0.00 88 1014.1
20260905075656 64 30 0.0 4.0 0.00 0.00 0.00 88 1014.1
20260905075456 64 20 0.0 4.0 0.00 0.00 0.00 88 1014.0
20260905075256 64 21 1.0 4.0 0.00 0.00 0.00 88 1014.1
20260905075055 64 45 1.0 4.0 0.00 0.00 0.00 88 1014.1
20260905074855 64 43 1.0 3.0 0.00 0.00 0.00 88 1014.1
20260905074655 64 41 1.0 3.0 0.00 0.00 0.00 88 1014.1
20260905074454 64 36 1.0 3.0 0.00 0.00 0.00 88 1014.1
20260905074254 65 38 0.0 3.0 0.00 0.00 0.00 88 1014.2
20260905074054 65 38 0.0 3.0 0.00 0.00 0.00 87 1014.1
20260905073854 65 9 1.0 3.0 0.00 0.00 0.00 87 1014.2
20260905073653 65 11 1.0 3.0 0.00 0.00 0.00 87 1014.2
20260905073453 65 30 1.0 3.0 0.00 0.00 0.00 87 1014.2
20260905073253 65 41 1.0 4.0 0.00 0.00 0.00 87 1014.2
20260905073052 65 43 1.0 5.0 0.00 0.00 0.00 87 1014.1
20260905072852 65 7 1.0 5.0 0.00 0.00 0.00 87 1014.1
20260905072652 65 353 0.0 5.0 0.00 0.00 0.00 86 1014.1
20260905072451 65 18 1.0 5.0 0.00 0.00 0.00 86 1014.1
20260905072251 65 46 1.0 5.0 0.00 0.00 0.00 86 1014.0
20260905072051 65 52 1.0 4.0 0.00 0.00 0.00 86 1014.1
20260905071850 65 55 1.0 4.0 0.00 0.00 0.00 86 1014.1
20260905071650 65 28 1.0 4.0 0.00 0.00 0.00 86 1014.1
20260905071450 66 51 0.0 4.0 0.00 0.00 0.00 86 1014.1
20260905071249 66 62 0.0 4.0 0.00 0.00 0.00 86 1014.1
20260905071049 66 55 1.0 4.0 0.00 0.00 0.00 85 1014.0
20260905070849 66 45 1.0 5.0 0.00 0.00 0.00 85 1014.0
20260905070648 66 53 0.0 5.0 0.00 0.00 0.00 85 1014.1
20260905070448 66 44 1.0 5.0 0.00 0.00 0.00 85 1014.1
20260905070248 66 15 2.0 5.0 0.00 0.00 0.00 85 1014.1
20260905070048 66 40 2.0 5.0 0.00 0.00 0.00 84 1014.1
20260905065847 66 64 1.0 5.0 0.00 0.00 0.00 84 1014.1
20260905065647 66 64 1.0 5.0 0.00 0.00 0.00 84 1014.1
20260905065447 66 62 1.0 5.0 0.00 0.00 0.00 84 1014.1
20260905065246 66 56 2.0 5.0 0.00 0.00 0.00 84 1014.2
20260905065046 66 53 2.0 5.0 0.00 0.00 0.00 84 1014.2
20260905064846 66 48 1.0 6.0 0.00 0.00 0.00 84 1014.2
20260905064645 66 2 1.0 6.0 0.00 0.00 0.00 84 1014.2
20260905064445 67 25 2.0 6.0 0.00 0.00 0.00 84 1014.2
20260905064245 67 35 2.0 6.0 0.00 0.00 0.00 83 1014.2
20260905064044 67 16 1.0 6.0 0.00 0.00 0.00 83 1014.1
20260905063844 67 36 1.0 4.0 0.00 0.00 0.00 83 1014.2
20260905063644 67 67 1.0 5.0 0.00 0.00 0.00 83 1014.1
20260905063444 67 29 1.0 6.0 0.00 0.00 0.00 83 1014.1
20260905063243 67 16 1.0 6.0 0.00 0.00 0.00 83 1014.2
20260905063043 67 43 1.0 6.0 0.00 0.00 0.00 83 1014.1
20260905062843 67 33 2.0 6.0 0.00 0.00 0.00 83 1014.2
20260905062642 67 67 1.0 6.0 0.00 0.00 0.00 82 1014.2
20260905062442 67 66 2.0 5.0 0.00 0.00 0.00 82 1014.2
20260905062242 67 53 2.0 5.0 0.00 0.00 0.00 82 1014.2
20260905062041 67 45 2.0 5.0 0.00 0.00 0.00 82 1014.1
20260905061841 67 35 2.0 5.0 0.00 0.00 0.00 82 1014.1
20260905061641 67 48 1.0 4.0 0.00 0.00 0.00 82 1014.1
20260905061440 67 11 1.0 4.0 0.00 0.00 0.00 82 1014.1
20260905061240 67 351 1.0 4.0 0.00 0.00 0.00 82 1014.1
20260905061040 67 4 1.0 4.0 0.00 0.00 0.00 82 1014.2
20260905060840 66 48 0.0 4.0 0.00 0.00 0.00 82 1014.2
20260905060639 66 48 0.0 4.0 0.00 0.00 0.00 81 1014.3
20260905060439 66 31 1.0 4.0 0.00 0.00 0.00 81 1014.3
20260905060239 66 1 0.0 2.0 0.00 0.00 0.00 81 1014.3
20260905060038 66 4 0.0 2.0 0.00 0.00 0.00 81 1014.3
20260905055838 66 7 0.0 2.0 0.00 0.00 0.00 81 1014.3
20260905055638 66 15 0.0 2.0 0.00 0.00 0.00 81 1014.3
20260905055437 66 16 0.0 1.0 0.00 0.00 0.00 81 1014.4
20260905055237 66 16 0.0 1.0 0.00 0.00 0.00 81 1014.4
20260905055037 66 16 0.0 1.0 0.00 0.00 0.00 81 1014.4
20260905054836 66 16 0.0 1.0 0.00 0.00 0.00 81 1014.4
20260905054636 66 16 0.0 1.0 0.00 0.00 0.00 80 1014.4
20260905054436 66 19 0.0 2.0 0.00 0.00 0.00 81 1014.5
20260905054235 66 44 0.0 3.0 0.00 0.00 0.00 81 1014.5
20260905054035 66 44 0.0 3.0 0.00 0.00 0.00 81 1014.6
20260905053835 66 44 0.0 3.0 0.00 0.00 0.00 80 1014.6
20260905053634 66 42 0.0 3.0 0.00 0.00 0.00 80 1014.7
20260905053434 66 32 0.0 3.0 0.00 0.00 0.00 80 1014.7
20260905053234 66 32 0.0 2.0 0.00 0.00 0.00 80 1014.7
20260905053034 66 32 0.0 2.0 0.00 0.00 0.00 80 1014.7
20260905052833 66 32 0.0 2.0 0.00 0.00 0.00 80 1014.7
20260905052633 66 32 0.0 2.0 0.00 0.00 0.00 80 1014.7
20260905052433 66 40 0.0 2.0 0.00 0.00 0.00 80 1014.8
20260905052232 66 50 0.0 2.0 0.00 0.00 0.00 80 1014.8
20260905052032 66 51 0.0 2.0 0.00 0.00 0.00 80 1014.8
20260905051832 66 51 0.0 1.0 0.00 0.00 0.00 80 1014.8
20260905051631 66 51 0.0 1.0 0.00 0.00 0.00 80 1014.8
20260905051431 66 51 0.0 1.0 0.00 0.00 0.00 80 1014.9
20260905051231 66 51 0.0 2.0 0.00 0.00 0.00 80 1014.9
20260905051030 66 51 0.0 2.0 0.00 0.00 0.00 80 1014.8
20260905050830 66 51 0.0 2.0 0.00 0.00 0.00 80 1014.9
20260905050630 66 51 0.0 2.0 0.00 0.00 0.00 80 1014.9
20260905050430 66 51 0.0 2.0 0.00 0.00 0.00 80 1014.9
20260905050229 66 51 0.0 1.0 0.00 0.00 0.00 80 1014.9
20260905050029 66 51 0.0 1.0 0.00 0.00 0.00 80 1014.9
20260905045829 66 51 0.0 1.0 0.00 0.00 0.00 80 1014.9
20260905045628 66 0 0.0 1.0 0.00 0.00 0.00 80 1015.0
20260905045428 66 51 0.0 1.0 0.00 0.00 0.00 80 1014.9
20260905045228 66 51 0.0 1.0 0.00 0.00 0.00 80 1015.0
20260905045027 66 51 0.0 1.0 0.00 0.00 0.00 80 1015.0
20260905044827 66 0 0.0 1.0 0.00 0.00 0.00 80 1014.9
20260905044627 66 51 0.0 1.0 0.00 0.00 0.00 80 1014.9
20260905044426 66 51 0.0 1.0 0.00 0.00 0.00 79 1014.9
20260905044226 66 51 0.0 1.0 0.00 0.00 0.00 79 1015.0
20260905044026 66 51 0.0 2.0 0.00 0.00 0.00 79 1014.9
20260905043825 66 51 0.0 2.0 0.00 0.00 0.00 79 1015.0
20260905043625 66 51 0.0 2.0 0.00 0.00 0.00 79 1015.0
20260905043425 66 50 0.0 2.0 0.00 0.00 0.00 79 1014.9
20260905043225 66 48 0.0 1.0 0.00 0.00 0.00 79 1014.9
20260905043024 66 50 0.0 1.0 0.00 0.00 0.00 78 1014.9
20260905042824 66 52 0.0 2.0 0.00 0.00 0.00 78 1014.9
20260905042624 66 53 0.0 2.0 0.00 0.00 0.00 78 1014.9
20260905042423 67 55 0.0 2.0 0.00 0.00 0.00 78 1014.8
20260905042223 67 56 0.0 2.0 0.00 0.00 0.00 78 1014.8
20260905042023 67 47 0.0 4.0 0.00 0.00 0.00 78 1014.8
20260905041822 67 34 0.0 4.0 0.00 0.00 0.00 77 1014.8
20260905041622 67 34 0.0 4.0 0.00 0.00 0.00 77 1014.8
20260905041422 67 40 1.0 4.0 0.00 0.00 0.00 77 1014.9
20260905041221 67 40 1.0 4.0 0.00 0.00 0.00 77 1014.9
20260905041021 67 24 1.0 4.0 0.00 0.00 0.00 77 1014.9
20260905040821 67 36 1.0 4.0 0.00 0.00 0.00 77 1014.8
20260905040621 67 25 1.0 4.0 0.00 0.00 0.00 77 1014.8
20260905040420 67 29 1.0 4.0 0.00 0.00 0.00 77 1014.8
20260905040220 67 17 1.0 3.0 0.00 0.00 0.00 77 1014.8
20260905040020 67 360 1.0 3.0 0.00 0.00 0.00 77 1014.8
20260905035819 67 48 1.0 3.0 0.00 0.00 0.00 77 1014.8
20260905035619 67 43 1.0 3.0 0.00 0.00 0.00 77 1014.8
20260905035419 67 18 1.0 3.0 0.00 0.00 0.00 77 1014.8
20260905035218 67 351 0.0 3.0 0.00 0.00 0.00 77 1014.8
20260905035018 67 351 0.0 3.0 0.00 0.00 0.00 77 1014.8
20260905034818 67 351 0.0 3.0 0.00 0.00 0.00 77 1014.8
20260905034617 67 351 0.0 3.0 0.00 0.00 0.00 77 1014.8
20260905034417 67 348 0.0 3.0 0.00 0.00 0.00 77 1014.8
20260905034217 67 344 0.0 2.0 0.00 0.00 0.00 77 1014.8
20260905034016 67 344 0.0 2.0 0.00 0.00 0.00 77 1014.7
20260905033816 67 343 0.0 2.0 0.00 0.00 0.00 77 1014.8
20260905033616 68 343 0.0 1.0 0.00 0.00 0.00 77 1014.8
20260905033416 68 0 0.0 1.0 0.00 0.00 0.00 76 1014.9
20260905033215 68 343 0.0 1.0 0.00 0.00 0.00 76 1014.9
20260905033015 68 0 0.0 1.0 0.00 0.00 0.00 76 1014.9
20260905032815 68 343 0.0 1.0 0.00 0.00 0.00 76 1015.0
20260905032614 68 343 0.0 2.0 0.00 0.00 0.00 76 1015.0
20260905032414 68 343 0.0 2.0 0.00 0.00 0.00 76 1015.0
20260905032214 68 345 0.0 2.0 0.00 0.00 0.00 76 1015.0
20260905032013 68 350 0.0 2.0 0.00 0.00 0.00 76 1015.0
20260905031813 68 348 0.0 2.0 0.00 0.00 0.00 76 1015.0
20260905031613 68 346 0.0 2.0 0.00 0.00 0.00 76 1015.0
20260905031412 68 346 0.0 2.0 0.00 0.00 0.00 76 1015.0
20260905031212 68 346 0.0 1.0 0.00 0.00 0.00 76 1014.9
20260905031012 68 346 0.0 1.0 0.00 0.00 0.00 75 1015.0
20260905030811 68 0 0.0 2.0 0.00 0.00 0.00 75 1014.9
20260905030611 68 25 0.0 2.0 0.00 0.00 0.00 75 1014.9
20260905030411 68 25 0.0 2.0 0.00 0.00 0.00 75 1014.9
20260905030211 68 34 1.0 2.0 0.00 0.00 0.00 75 1014.9
20260905030010 69 38 0.0 2.0 0.00 0.00 0.00 75 1014.8
20260905025810 69 38 0.0 2.0 0.00 0.00 0.00 75 1014.8
20260905025610 69 33 0.0 2.0 0.00 0.00 0.00 75 1014.8
20260905025409 69 31 0.0 2.0 0.00 0.00 0.00 75 1014.8
20260905025209 69 32 0.0 2.0 0.00 0.00 0.00 75 1014.8
20260905025009 69 32 1.0 2.0 0.00 0.00 0.00 75 1014.8
20260905024808 69 32 0.0 2.0 0.00 0.00 0.00 75 1014.8
20260905024608 69 34 0.0 2.0 0.00 0.00 0.00 75 1014.8
20260905024408 69 30 0.0 2.0 0.00 0.00 0.00 75 1014.8
20260905024207 69 23 0.0 2.0 0.00 0.00 0.00 75 1014.7
20260905024007 69 360 0.0 2.0 0.00 0.00 0.00 75 1014.8
20260905023807 69 355 1.0 4.0 0.00 0.00 0.00 75 1014.7
20260905023606 69 355 1.0 4.0 0.00 0.00 0.00 75 1014.7
20260905023406 69 355 0.0 4.0 0.00 0.00 0.00 75 1014.7
20260905023206 69 354 1.0 4.0 0.00 0.00 0.00 75 1014.7
20260905023005 69 354 1.0 4.0 0.00 0.00 0.00 75 1014.8
20260905022805 69 25 0.0 3.0 0.00 0.00 0.00 75 1014.8
20260905022605 69 25 0.0 3.0 0.00 0.00 0.00 75 1014.8
20260905022405 70 25 0.0 3.0 0.00 0.00 0.00 75 1014.9
20260905022204 70 26 0.0 3.0 0.00 0.00 0.00 75 1014.8
20260905022004 70 26 0.0 2.0 0.00 0.00 0.00 75 1014.9
20260905021804 70 26 0.0 2.0 0.00 0.00 0.00 75 1014.9
20260905021603 70 24 0.0 3.0 0.00 0.00 0.00 75 1014.9
20260905021403 70 18 0.0 3.0 0.00 0.00 0.00 75 1014.9
20260905021203 70 26 1.0 3.0 0.00 0.00 0.00 75 1014.9
20260905021002 70 34 0.0 3.0 0.00 0.00 0.00 75 1014.9
20260905020802 70 17 1.0 3.0 0.00 0.00 0.00 75 1014.9
20260905020602 70 11 0.0 3.0 0.00 0.00 0.00 75 1014.9
20260905020401 70 21 1.0 3.0 0.00 0.00 0.00 75 1014.8
20260905020201 71 26 0.0 6.0 0.00 0.00 0.00 75 1014.8
20260905020001 71 26 0.0 6.0 0.00 0.00 0.00 75 1014.7
20260905015801 71 23 1.0 6.0 0.00 0.00 0.00 75 1014.7
20260905015600 71 20 1.0 6.0 0.00 0.00 0.00 74 1014.7
20260905015400 71 25 1.0 6.0 0.00 0.00 0.00 74 1014.7
20260905015200 71 29 1.0 6.0 0.00 0.00 0.00 74 1014.7
20260905014959 71 360 2.0 5.0 0.00 0.00 0.00 74 1014.7
20260905014759 71 20 1.0 5.0 0.00 0.00 0.00 74 1014.7
20260905014559 71 35 1.0 3.0 0.00 0.00 0.00 74 1014.7
20260905014358 71 43 1.0 3.0 0.00 0.00 0.00 74 1014.7
20260905014158 71 42 1.0 3.0 0.00 0.00 0.00 74 1014.7
20260905013958 71 52 0.0 3.0 0.00 0.00 0.00 75 1014.7
20260905013757 71 44 1.0 4.0 0.00 0.00 0.00 74 1014.7
20260905013557 71 15 1.0 5.0 0.00 0.00 0.00 75 1014.7
20260905013357 71 17 1.0 5.0 0.00 0.00 0.00 74 1014.8
20260905013157 71 29 1.0 5.0 0.00 0.00 0.00 74 1014.8
20260905012956 71 29 2.0 5.0 0.00 0.00 0.00 75 1014.8
20260905012756 72 30 1.0 5.0 0.00 0.00 0.00 75 1014.8
20260905012556 72 31 1.0 5.0 0.00 0.00 0.00 75 1014.8
20260905012355 72 27 1.0 5.0 0.00 0.00 0.00 75 1014.9
20260905012155 72 42 2.0 5.0 0.00 0.00 0.00 75 1014.8
20260905011955 72 38 2.0 5.0 0.00 0.00 0.00 75 1014.8
20260905011754 72 25 2.0 5.0 0.00 0.00 0.00 75 1014.9
20260905011554 72 24 2.0 6.0 0.00 0.00 0.00 75 1014.9
20260905011354 72 42 1.0 6.0 0.00 0.00 0.00 75 1014.8
20260905011153 72 30 2.0 6.0 0.00 0.00 0.00 76 1014.9
20260905010953 72 39 2.0 6.0 0.00 0.00 0.00 76 1014.9
20260905010753 72 32 2.0 5.0 0.00 0.00 0.00 77 1014.9
20260905010552 72 14 2.0 5.0 0.00 0.00 0.00 77 1014.9
20260905010352 72 9 1.0 5.0 0.00 0.00 0.00 78 1014.9
20260905010152 72 10 1.0 4.0 0.00 0.00 0.00 78 1014.9
20260905005952 72 27 2.0 4.0 0.00 0.00 0.00 78 1014.8
20260905005751 72 21 1.0 4.0 0.00 0.00 0.00 78 1014.8
20260905005551 72 355 1.0 4.0 0.00 0.00 0.00 78 1014.7
20260905005351 72 344 1.0 4.0 0.00 0.00 0.00 78 1014.8
20260905005150 72 328 0.0 3.0 0.00 0.00 0.00 78 1014.8
20260905004950 72 343 1.0 3.0 0.00 0.00 0.00 78 1014.8
20260905004750 72 350 0.0 3.0 0.00 0.00 0.00 79 1014.7
20260905004549 72 344 1.0 3.0 0.00 0.00 0.00 79 1014.7
20260905004349 72 270 0.0 3.0 0.00 0.00 0.00 79 1014.7
20260905004149 72 269 0.0 2.0 0.00 0.00 0.00 79 1014.7
20260905003948 72 268 0.0 2.0 0.00 0.00 0.00 79 1014.7
20260905003748 72 0 0.0 1.0 0.00 0.00 0.00 78 1014.7
20260905003548 72 255 0.0 1.0 0.00 0.00 0.00 78 1014.7
20260905003347 72 255 0.0 1.0 0.00 0.00 0.00 78 1014.8
20260905003147 72 255 0.0 1.0 0.00 0.00 0.00 78 1014.8
20260905002947 72 0 0.0 1.0 0.00 0.00 0.00 79 1014.7
20260905002747 72 0 0.0 1.0 0.00 0.00 0.00 78 1014.7
20260905002546 72 255 0.0 1.0 0.00 0.00 0.00 78 1014.6
20260905002346 72 255 0.0 1.0 0.00 0.00 0.00 78 1014.6
20260905002146 72 0 0.0 1.0 0.00 0.00 0.00 78 1014.5
20260905001945 72 255 0.0 1.0 0.00 0.00 0.00 78 1014.4
20260905001745 72 255 0.0 1.0 0.00 0.00 0.00 78 1014.4
20260905001545 72 255 0.0 1.0 0.00 0.00 0.00 78 1014.4
20260905001344 72 0 0.0 1.0 0.00 0.00 0.00 78 1014.3
20260905001144 72 255 0.0 1.0 0.00 0.00 0.00 78 1014.3
20260905000944 72 0 0.0 1.0 0.00 0.00 0.00 78 1014.3
20260905000743 72 255 0.0 1.0 0.00 0.00 0.00 78 1014.3
20260905000543 72 255 0.0 1.0 0.00 0.00 0.00 78 1014.3
20260905000343 72 255 0.0 1.0 0.00 0.00 0.00 78 1014.2
20260905000143 73 255 0.0 1.0 0.00 0.00 0.00 78 1014.2
20260904235942 73 254 0.0 1.0 0.00 0.00 0.00 78 1014.2
20260904235742 73 232 0.0 1.0 0.00 0.00 0.00 77 1014.2
20260904235542 73 0 0.0 1.0 0.00 0.00 0.00 78 1014.1
20260904235341 73 167 0.0 1.0 0.00 0.00 0.00 78 1014.1
20260904235141 73 163 0.0 1.0 0.00 0.00 0.00 77 1014.0
20260904234941 73 163 0.0 1.0 0.00 0.00 0.00 77 1014.1
20260904234740 73 109 0.0 1.0 0.00 0.00 0.00 77 1014.0
20260904234540 73 109 0.0 1.0 0.00 0.00 0.00 77 1013.9
20260904234340 73 0 0.0 1.0 0.00 0.00 0.00 76 1013.9
20260904234139 73 0 0.0 0.0 0.00 0.00 0.00 76 1013.9
20260904233939 73 0 0.0 0.0 0.00 0.00 0.00 76 1013.9
20260904233739 73 0 0.0 0.0 0.00 0.00 0.00 76 1014.0
20260904233538 73 0 0.0 0.0 0.00 0.00 0.00 75 1014.0
20260904233338 73 0 0.0 0.0 0.00 0.00 0.00 75 1013.9
20260904233138 74 0 0.0 0.0 0.00 0.00 0.00 75 1013.9
20260904232938 74 0 0.0 0.0 0.00 0.00 0.00 75 1013.9
20260904232737 74 0 0.0 0.0 0.00 0.00 0.00 75 1013.9
20260904232537 74 0 0.0 0.0 0.00 0.00 0.00 74 1013.9
20260904232337 74 0 0.0 0.0 0.00 0.00 0.00 74 1013.8
20260904232136 74 0 0.0 1.0 0.00 0.00 0.00 74 1013.7
20260904231936 74 0 0.0 1.0 0.00 0.00 0.00 74 1013.8
20260904231736 74 0 0.0 1.0 0.00 0.00 0.00 74 1013.7
20260904231535 74 0 0.0 1.0 0.00 0.00 0.00 74 1013.7
20260904231335 74 109 0.0 1.0 0.00 0.00 0.00 74 1013.7
20260904231135 74 109 0.0 1.0 0.00 0.00 0.00 74 1013.7
20260904230934 74 109 0.0 1.0 0.00 0.00 0.00 74 1013.7
20260904230734 74 109 0.0 1.0 0.00 0.00 0.00 74 1013.8
20260904230534 74 109 0.0 1.0 0.00 0.00 0.00 74 1013.7
20260904230334 74 109 0.0 1.0 0.00 0.00 0.00 74 1013.7